Location: Barcelona
(41.3830°N, 2.1830°E)
Time: 01:54:19
(UTC+02:00)

ISS - Pass Details

Date: 18 July 2019
Orbit: 409 x 418 km, 51.6° (Epoch: 23 July)

Event Time Altitude Azimuth Distance (km) Brightness Sun altitude
Rises 01:26:57 0° 291° (WNW) 2,349 0.4 -27.1°
Reaches altitude 10° 01:29:44 10° 317° (NW) 1,485 -0.3 -27.2°
Maximum altitude 01:31:43 15° 353° (N) 1,229 -0.5 -27.2°
Drops below altitude 10° 01:33:42 10° 30° (NNE) 1,483 -0.3 -27.3°
Sets 01:36:29 0° 55° (NE) 2,344 0.4 -27.3°
